Phoenix, AZ

6:13 AM MST on December 11, 2016 (GMT -0700)
Phoenix-Deer Valley Municipal

Weather History for KDVT - March, 2014

Change the Weather History Date:

Friday, March 21, 2014

  Actual Average Record
Temperature  
Mean Temperature 64 °F -  
Max Temperature 79 °F 76 °F 93 °F (2004)
Min Temperature 48 °F 52 °F 42 °F (2005)
Degree Days  
Heating Degree Days 2    
Growing Degree Days 14 (Base 50)    
Moisture  
Dew Point 21 °F    
Average Humidity 21    
Maximum Humidity 42    
Minimum Humidity 8    
Precipitation  
Precipitation 0.00 in - - ()
Sea Level Pressure  
Sea Level Pressure 29.84 in    
Wind  
Wind Speed 3 mph (South)    
Max Wind Speed 9 mph    
Max Gust Speed -    
Visibility 10 miles    
Events      
Averages and records for this station are not official NWS values.
T = Trace of Precipitation, MM = Missing Value Source: NWS Daily Summary

Daily Weather History Graph

Daily Weather History Graph

Search for Another Location

Airport or City:

Trip Planner

Search our weather history database for the weather conditions in past years. The results will help you decide how hot, cold, wet, or windy it might be!

Date:

Astronomy

Mar. 21, 2014 Rise Set
Actual Time 6:30 AM MST 6:40 PM MST
Civil Twilight 6:05 AM MST 7:05 PM MST
Nautical Twilight 5:36 AM MST 7:34 PM MST
Astronomical Twilight 5:07 AM MST 8:04 PM MST
Moon 11:51 PM MST (3/21) 9:38 AM MST (3/21)
Length of Visible Light 12h 59m
Length of Day
12h 10m
Waning Gibbous, 74% of the Moon is Illuminated
Mar 21
Waning Gibbous
Mar 23
Last Quarter
Mar 30
New
Apr 7
First Quarter
Apr 15
Full

Hourly Weather History & Observations

Time (MST) Temp. Dew Point Humidity Pressure Visibility Wind Dir Wind Speed Gust Speed Precip Events Conditions
12:53 AM 55.9 °F 27.0 °F 33% 29.83 in 10.0 mi Calm Calm - N/A   Clear
1:53 AM 59.0 °F 23.0 °F 25% 29.83 in 10.0 mi NNE 6.9 mph - N/A   Clear
2:53 AM 55.0 °F 24.1 °F 30% 29.82 in 10.0 mi East 3.5 mph - N/A   Clear
3:53 AM 52.0 °F 25.0 °F 35% 29.81 in 10.0 mi Calm Calm - N/A   Clear
4:53 AM 50.0 °F 25.0 °F 38% 29.82 in 10.0 mi Calm Calm - N/A   Clear
5:53 AM 48.0 °F 26.1 °F 42% 29.84 in 10.0 mi Calm Calm - N/A   Clear
6:53 AM 50.0 °F 24.1 °F 36% 29.86 in 10.0 mi Calm Calm - N/A   Clear
7:53 AM 59.0 °F 24.1 °F 26% 29.87 in 10.0 mi Calm Calm - N/A   Clear
8:53 AM 64.9 °F 24.1 °F 21% 29.89 in 10.0 mi East 6.9 mph - N/A   Clear
9:53 AM 69.1 °F 21.0 °F 16% 29.90 in 10.0 mi ESE 5.8 mph - N/A   Clear
10:53 AM 71.1 °F 17.1 °F 13% 29.89 in 10.0 mi South 4.6 mph - N/A   Clear
11:53 AM 73.9 °F 16.0 °F 11% 29.88 in 10.0 mi ESE 3.5 mph - N/A   Clear
12:05 PM 73.4 °F 15.8 °F 11% 29.93 in 10.0 mi West 6.9 mph - N/A   Clear
12:53 PM 75.9 °F 14.0 °F 10% 29.87 in 10.0 mi Variable 4.6 mph - N/A   Clear
1:53 PM 75.9 °F 14.0 °F 10% 29.83 in 10.0 mi Variable 3.5 mph - N/A   Clear
2:53 PM 78.1 °F 12.9 °F 8% 29.82 in 10.0 mi SW 9.2 mph - N/A   Clear
3:53 PM 79.0 °F 12.9 °F 8% 29.81 in 10.0 mi WNW 8.1 mph - N/A   Clear
4:53 PM 79.0 °F 14.0 °F 9% 29.80 in 10.0 mi WSW 9.2 mph - N/A   Clear
5:53 PM 77.0 °F 16.0 °F 10% 29.80 in 10.0 mi South 5.8 mph - N/A   Clear
6:53 PM 75.0 °F 17.1 °F 11% 29.80 in 10.0 mi WSW 6.9 mph - N/A   Clear
7:53 PM 69.1 °F 19.9 °F 15% 29.81 in 10.0 mi Calm Calm - N/A   Clear
8:07 PM 69.8 °F 19.4 °F 15% 29.85 in 10.0 mi Calm Calm - N/A   Clear
8:53 PM 62.1 °F 25.0 °F 24% 29.82 in 10.0 mi Calm Calm - N/A   Clear
9:53 PM 60.1 °F 27.0 °F 28% 29.82 in 10.0 mi East 3.5 mph - N/A   Clear
10:53 PM 59.0 °F 26.1 °F 28% 29.82 in 10.0 mi Calm Calm - N/A   Clear
11:53 PM 57.9 °F 26.1 °F 30% 29.82 in 10.0 mi Calm Calm - N/A   Clear